sat.trackr.live / text

‹ back to catalog

CYGFM07

NORAD 41890 · 2016-078G

PAYLOAD INACTIVE UNKNOWN

§ Identity

Operator
Country
US
Launch date
2016-12-15
Launch site
ERAS
Launch vehicle
Mass (kg)
RCS (m²)
0.32

Purposes: earth_obs

External: N2YO · Heavens-Above · Gunter

§ Orbital elements

Epoch: 2026-09-03T21:08:43.604736Z

Period
92.05 min
Inclination
34.9438°
Eccentricity
0.0004711
Mean motion
15.64302498 rev/d
Perigee alt
372.1 km
Apogee alt
378.4 km
Semi-major
6,753.4 km
B*
2.5887e-4
RAAN
64.0642°
Arg perigee
246.7658°
Mean anomaly
113.2572°
Rev number
54,131

§ Raw data

CYGFM071 41890U 16078G   26246.88106024  .00025638  00000+0  25887-3 0  99992 41890  34.9438  64.0642 0004711 246.7658 113.2572 15.64302498541315

JSON: /api/v1/satellites/41890 · /tle

For live sub-satellite position, see the globe view (requires WebGL).

§ Visibility from observer

Set your observer location to see the next 7 days of passes ≥ 10°. The values pass through the URL so the page stays shareable.

No JS? Fill the form by hand. The geolocation button needs JavaScript.